Location: Bats
(43.6587°N, 0.4584°W)
Time: 09:32:46
(UTC+00:00)

Meteor 1-21 - Pass Details

Date: 12 January 2026
Orbit: 845 x 885 km, 81.2° (Epoch: 17 February)

Event Time Altitude Azimuth Distance (km) Brightness Sun altitude
Rises 17:50:57 0° 171° (S) 3,407 7.5 -11.4°
Reaches altitude 10° 17:53:26 10° 166° (SSE) 2,471 6.7 -11.8°
Maximum altitude 17:58:47 48° 93° (E) 1,103 4.4 -12.7°
Drops below altitude 10° 18:04:08 10° 21° (NNE) 2,476 6.3 -13.6°
Sets 18:06:37 0° 16° (NNE) 3,415 7.0 -14.1°
